Wind_Speed
4 4 4 4 5 5 7 8 8 8 8 8 7 7 6 6 6 6 6 7 6 6 7 6 6 6 6 6 6 5 5 5 6 6 7 6 6 6 7 8 8 9 9
5 5 5 5 5 5 6 7 7 7 7 7 6 6 6 6 6 6 6 6 6 7 7 6 6 6 6 6 5 5 4 4 5 6 6 6 6 6 7 7 8 8 8
7 7 6 6 5 6 6 7 7 6 6 6 5 5 5 5 5 5 6 6 7 7 7 6 6 6 6 5 5 4 4 4 4 4 5 4 4 5 5 6 7 7 8
8 8 8 7 6 6 6 6 6 6 5 4 4 4 4 5 5 5 6 6 7 7 7 6 6 5 5 5 5 4 3 3 3 3 3 3 4 4 5 5 6 7 7
9 9 9 9 7 6 6 6 6 5 4 3 3 4 4 4 5 6 6 6 6 7 7 6 5 5 4 4 4 3 2 2 2 2 2 3 4 4 5 5 6 6 6
10 11 11 10 9 8 7 6 5 4 3 2 2 3 3 4 5 6 6 6 6 6 6 6 6 5 4 4 3 3 2 2 2 1 2 3 3 3 4 5 5 5 5
11 11 12 11 10 9 8 6 5 4 3 2 1 2 3 4 5 5 6 6 6 6 6 6 6 5 4 3 3 2 2 1 1 1 1 2 2 3 3 4 5 5 5
12 13 13 12 11 10 8 7 6 5 3 2 0 1 3 4 5 5 5 5 5 5 6 6 5 5 4 4 3 2 2 1 2 1 0 0 1 2 2 3 4 4 4
13 15 15 14 13 11 10 8 7 6 5 3 2 1 3 4 5 5 5 5 5 5 5 5 5 5 4 4 3 2 1 1 1 1 1 1 2 2 3 2 3 3 3
12 15 16 15 15 13 11 10 8 7 6 4 3 3 3 4 4 5 5 5 5 5 5 5 4 4 4 4 4 3 2 2 2 2 1 2 3 3 4 3 3 3 3
13 15 17 17 16 14 13 11 10 9 7 6 5 5 4 4 4 4 4 4 5 5 5 5 4 4 4 4 4 3 3 2 3 2 1 2 3 3 5 4 4 3 4
14 15 17 18 17 16 14 13 12 11 9 7 6 6 5 5 5 4 4 4 5 4 4 4 4 4 4 3 3 3 3 3 2 2 2 2 3 3 4 5 5 5 5
15 15 18 20 19 18 16 15 14 12 10 9 7 6 5 5 5 5 5 4 4 3 3 4 4 4 3 2 2 2 2 2 3 2 3 3 3 4 4 5 5 6 6
13 15 18 20 20 19 19 17 16 14 13 11 9 8 6 5 5 5 5 4 4 3 4 4 4 4 3 2 2 2 3 3 2 3 3 3 3 4 5 5 6 6 6
14 14 16 20 21 21 20 19 18 16 14 13 11 10 8 7 6 6 5 5 4 4 4 4 3 3 2 2 2 2 2 2 2 2 3 4 3 4 4 5 6 7 7
13 15 16 20 22 21 20 20 20 18 16 14 12 11 10 8 8 7 6 5 5 4 4 3 3 2 2 2 1 2 2 2 1 2 2 3 4 4 4 5 6 7 7
14 15 17 20 22 22 21 21 21 19 17 15 13 12 11 10 9 8 7 6 5 4 4 3 2 2 2 2 2 2 2 1 0 1 1 2 3 4 4 5 5 6 7
16 17 20 22 22 23 23 22 22 20 18 16 15 13 13 12 10 9 8 7 5 4 4 3 2 2 1 1 1 1 2 1 0 1 1 1 2 3 4 4 5 5 6
17 18 20 23 22 23 24 23 22 21 20 18 16 15 14 13 11 9 8 7 6 5 4 4 3 1 0 1 1 1 1 1 0 1 1 1 1 2 3 4 4 5 6
15 18 20 23 23 23 24 24 23 22 21 19 17 17 16 15 13 11 10 8 6 6 5 4 3 2 1 0 1 1 1 1 1 1 1 1 1 1 2 3 4 4 5
14 17 21 23 23 23 23 23 23 22 21 20 20 18 16 15 14 12 11 9 8 7 5 4 3 2 2 1 1 1 1 1 1 1 1 1 1 1 1 2 3 4 5
12 15 19 22 22 22 23 24 24 23 21 21 21 20 17 16 15 14 12 11 9 7 6 5 4 3 2 1 1 1 1 0 1 1 1 1 1 2 2 3 3 4 5
11 14 16 20 22 22 23 24 24 24 23 23 22 20 18 17 16 15 14 12 11 9 8 6 5 4 3 3 2 2 1 1 0 1 1 1 2 2 3 3 4 4 5
9 13 15 19 21 22 23 24 24 24 22 22 22 21 19 18 17 16 15 14 12 10 9 7 6 5 5 4 4 3 2 2 1 1 2 2 2 3 4 4 5 6 6
7 11 14 16 20 22 23 23 23 23 23 22 23 22 21 19 18 17 16 15 13 12 11 9 8 7 6 6 5 5 4 3 3 3 4 4 4 4 5 6 6 7 8
6 9 13 15 18 21 22 22 22 23 22 21 23 22 21 19 18 17 16 15 14 13 12 11 10 9 8 8 7 6 6 6 6 6 6 6 6 7 7 8 9 9 9
Wind_Direction
191 181 191 181 163 142 124 110 96 88 81 73 67 60 55 49 45 41 38 36 35 35 34 37 42 47 52 57 61 66 72 77 86 90 90 90 95 96 102 104 103 103 101
206 200 204 196 176 152 133 119 105 93 84 76 66 59 52 46 41 38 34 30 28 29 31 32 35 38 43 50 54 59 68 77 90 88 86 85 91 98 102 107 107 106 105
217 211 212 204 185 165 146 130 116 102 91 80 67 58 52 43 35 32 27 24 24 26 27 30 32 32 35 40 45 51 65 83 95 86 82 78 87 99 101 106 108 109 108
223 218 217 208 192 176 158 140 126 112 98 86 71 54 45 37 27 24 21 20 21 21 24 28 30 31 32 36 39 43 60 88 96 87 85 79 89 103 106 108 110 111 110
228 223 220 212 198 186 170 154 138 123 107 90 68 47 35 27 19 17 16 15 17 17 19 20 22 23 25 29 33 33 47 82 96 84 92 93 100 103 110 112 113 114 112
231 223 220 215 204 197 184 170 157 143 128 101 64 40 23 15 11 10 9 9 12 14 14 14 13 13 14 20 26 27 37 65 79 83 100 108 112 109 113 116 118 117 117
228 223 219 216 211 202 193 185 175 168 157 133 63 24 6 4 2 2 3 2 4 5 7 8 5 2 4 8 10 10 21 36 34 62 89 114 121 126 125 129 131 129 128
229 220 219 219 218 207 202 199 192 189 185 184 210 350 347 350 349 354 357 354 355 358 0 2 3 360 360 1 357 357 356 359 16 32 34 164 155 149 144 147 148 142 132
235 222 219 219 214 210 207 205 204 203 203 209 232 296 329 336 333 338 343 344 347 350 353 356 356 355 357 359 352 348 339 317 312 323 299 210 183 176 169 163 159 165 157
238 226 220 217 213 210 208 208 210 212 217 225 240 268 299 317 319 320 325 330 334 340 343 344 344 342 343 343 342 335 316 313 306 284 266 222 213 205 193 189 189 186 185
240 229 221 215 212 212 208 208 211 214 218 228 246 263 276 294 301 305 314 320 324 326 330 335 334 329 333 330 327 324 315 309 303 287 253 219 219 217 208 206 206 207 208
236 230 224 215 212 213 210 209 210 214 220 229 242 256 263 276 284 292 303 313 319 324 330 338 338 332 327 322 319 318 313 304 287 253 243 222 216 216 215 213 214 217 218
234 229 224 217 213 212 211 211 212 216 221 228 237 248 254 264 273 280 291 302 315 326 335 342 342 336 332 323 310 309 308 300 280 255 246 234 224 222 218 218 219 222 225
236 230 223 217 211 211 211 211 212 217 221 227 233 243 251 254 263 274 280 290 307 324 332 337 339 333 334 329 314 305 305 294 269 247 243 233 227 221 219 221 224 228 232
234 230 223 213 209 211 212 214 214 218 222 227 233 241 243 245 254 266 267 278 292 310 320 329 336 339 343 338 322 314 312 305 253 247 246 238 236 225 224 228 227 230 234
233 225 221 215 210 210 210 214 215 218 223 226 233 238 237 240 249 256 257 264 273 293 307 317 322 326 335 344 338 326 318 298 254 263 265 247 237 231 234 239 238 236 236
234 224 216 211 207 207 211 215 216 218 219 224 230 234 233 236 243 248 250 246 255 272 294 305 314 332 354 9 13 2 344 337 328 297 273 250 240 240 240 245 246 244 246
230 221 216 209 207 209 211 213 216 218 219 224 228 231 230 233 235 235 241 242 246 260 273 287 303 337 12 36 26 358 350 5 355 331 316 292 259 252 247 249 250 255 257
227 220 219 208 206 208 211 215 216 218 220 222 225 225 225 228 227 227 233 237 242 246 253 267 278 268 80 66 51 15 3 24 81 348 348 350 311 260 255 256 261 268 268
230 219 218 214 213 212 211 213 216 217 218 219 222 223 224 224 223 222 223 227 229 233 243 248 252 238 215 91 88 77 80 58 85 33 11 12 2 299 275 268 270 275 279
230 219 218 214 212 212 212 215 215 214 216 215 217 218 219 221 221 218 217 219 222 228 235 231 231 229 217 186 151 128 100 77 67 31 13 3 357 336 306 299 297 290 288
228 216 216 211 212 212 214 213 209 208 212 212 213 215 217 219 220 216 214 215 218 223 223 224 222 214 211 202 186 171 163 129 46 21 5 349 329 323 319 314 311 307 299
229 219 211 210 209 213 214 213 209 208 211 212 213 213 214 217 217 215 213 215 217 218 219 224 224 223 223 220 217 216 198 183 280 329 330 330 322 309 306 307 311 312 309
231 220 212 206 208 209 210 210 208 208 210 212 213 212 212 214 214 213 215 217 218 219 222 225 226 226 227 229 232 232 226 226 257 288 303 306 307 310 312 310 306 304 305
233 223 212 206 207 206 207 207 209 208 209 211 210 208 210 214 214 214 216 217 218 222 224 225 228 230 233 239 242 242 245 250 264 281 292 296 297 302 306 307 306 303 302
241 224 211 202 200 199 202 206 206 206 206 208 208 208 211 213 213 213 214 217 221 226 228 228 230 233 236 242 246 249 255 262 270 279 285 290 291 293 295 297 299 300 300
Height
5877 5878 5880 5880 5881 5881 5881 5882 5883 5883 5884 5885 5886 5887 5887 5887 5888 5888 5888 5888 5888 5888 5887 5887 5887 5887 5887 5887 5887 5887 5888 5888 5888 5888 5888 5888 5888 5888 5889 5889 5889 5890 5890
5877 5878 5879 5880 5880 5881 5881 5882 5883 5884 5885 5885 5886 5887 5887 5888 5888 5889 5889 5889 5888 5888 5888 5888 5887 5888 5888 5888 5888 5888 5888 5888 5888 5889 5889 5889 5889 5890 5890 5890 5891 5891 5891
5876 5877 5878 5879 5880 5881 5881 5882 5883 5884 5885 5886 5887 5887 5888 5888 5889 5889 5889 5889 5889 5889 5888 5888 5888 5888 5888 5888 5888 5888 5889 5889 5889 5890 5890 5890 5890 5891 5891 5891 5892 5892 5892
5875 5876 5877 5879 5879 5880 5881 5882 5883 5884 5885 5886 5886 5887 5888 5888 5889 5889 5889 5889 5889 5889 5889 5889 5889 5889 5889 5889 5889 5889 5889 5889 5890 5890 5890 5891 5891 5891 5892 5892 5892 5893 5893
5874 5875 5876 5878 5878 5879 5880 5881 5882 5883 5885 5886 5886 5887 5888 5888 5888 5889 5889 5889 5889 5889 5889 5889 5889 5889 5889 5889 5889 5889 5889 5889 5890 5890 5891 5891 5891 5892 5892 5893 5893 5894 5894
5872 5874 5875 5876 5877 5878 5880 5881 5882 5883 5884 5885 5886 5887 5887 5888 5888 5888 5889 5889 5889 5889 5889 5889 5889 5889 5889 5889 5889 5889 5889 5890 5890 5890 5891 5891 5892 5892 5892 5893 5893 5894 5894
5870 5872 5874 5875 5876 5877 5879 5880 5881 5882 5884 5885 5885 5886 5887 5887 5888 5888 5888 5889 5889 5889 5889 5889 5889 5889 5889 5889 5889 5889 5889 5889 5890 5890 5891 5891 5892 5892 5893 5893 5894 5894 5895
5868 5870 5872 5873 5875 5877 5878 5880 5881 5882 5883 5884 5885 5886 5886 5887 5887 5888 5888 5888 5889 5889 5889 5889 5889 5888 5889 5889 5889 5889 5889 5889 5890 5890 5890 5891 5892 5892 5893 5893 5894 5894 5895
5866 5868 5870 5872 5873 5875 5877 5879 5880 5881 5883 5883 5884 5885 5886 5886 5887 5887 5888 5888 5889 5889 5889 5889 5889 5888 5888 5888 5888 5889 5889 5889 5889 5890 5890 5890 5891 5892 5893 5893 5894 5895 5895
5863 5865 5867 5869 5872 5874 5876 5877 5879 5881 5882 5883 5884 5884 5885 5886 5886 5887 5887 5888 5888 5888 5889 5888 5888 5888 5888 5888 5888 5888 5888 5888 5889 5889 5889 5890 5891 5891 5892 5893 5894 5894 5895
5860 5862 5864 5867 5869 5871 5874 5876 5878 5879 5881 5882 5883 5884 5884 5885 5885 5886 5886 5887 5887 5888 5888 5888 5888 5888 5887 5887 5887 5887 5887 5888 5888 5888 5889 5889 5890 5890 5891 5892 5893 5894 5895
5856 5858 5861 5864 5866 5869 5872 5874 5876 5878 5880 5881 5882 5883 5883 5884 5885 5885 5886 5886 5887 5887 5887 5887 5887 5887 5887 5887 5887 5887 5887 5887 5887 5888 5888 5888 5889 5889 5890 5891 5892 5893 5894
5853 5855 5858 5860 5863 5866 5869 5872 5874 5876 5878 5879 5881 5881 5882 5883 5884 5884 5885 5885 5886 5886 5887 5887 5887 5886 5886 5886 5886 5886 5886 5886 5887 5887 5887 5888 5888 5889 5890 5890 5891 5892 5893
5850 5852 5854 5856 5859 5863 5866 5869 5872 5874 5876 5878 5879 5880 5881 5882 5883 5884 5884 5884 5885 5885 5886 5886 5886 5886 5886 5886 5886 5886 5886 5886 5886 5886 5887 5887 5887 5888 5889 5889 5890 5891 5892
5846 5848 5850 5853 5856 5860 5863 5867 5870 5872 5874 5876 5877 5879 5880 5881 5882 5882 5883 5884 5884 5885 5885 5886 5886 5885 5885 5885 5885 5885 5885 5885 5885 5886 5886 5886 5887 5887 5888 5888 5889 5890 5890
5842 5844 5847 5849 5852 5856 5860 5864 5867 5869 5872 5874 5875 5877 5878 5879 5880 5881 5882 5883 5883 5884 5884 5885 5885 5885 5885 5885 5885 5885 5885 5885 5885 5885 5885 5885 5886 5886 5887 5887 5888 5888 5889
5838 5840 5842 5845 5849 5853 5857 5861 5864 5867 5869 5872 5874 5875 5877 5878 5879 5880 5881 5882 5883 5883 5884 5884 5885 5885 5885 5884 5884 5884 5884 5884 5884 5884 5884 5885 5885 5885 5886 5886 5887 5887 5888
5832 5835 5838 5842 5846 5850 5854 5857 5861 5864 5867 5869 5871 5873 5875 5876 5877 5879 5880 5881 5882 5882 5883 5884 5884 5884 5884 5884 5884 5884 5884 5884 5884 5884 5884 5884 5884 5884 5885 5885 5886 5886 5886
5828 5831 5835 5838 5842 5846 5850 5854 5857 5861 5864 5867 5869 5871 5872 5874 5876 5877 5879 5880 5880 5881 5882 5883 5883 5883 5884 5884 5884 5884 5884 5884 5883 5884 5884 5883 5883 5884 5884 5884 5884 5884 5885
5824 5827 5831 5834 5839 5842 5846 5850 5854 5857 5861 5864 5866 5868 5870 5872 5874 5875 5877 5878 5879 5881 5881 5882 5883 5883 5883 5884 5884 5883 5883 5883 5883 5883 5883 5883 5883 5883 5883 5883 5883 5883 5883
5821 5823 5826 5830 5835 5838 5842 5846 5850 5854 5858 5861 5863 5866 5868 5870 5872 5874 5876 5877 5878 5880 5880 5881 5882 5883 5883 5883 5884 5884 5883 5883 5883 5883 5883 5883 5883 5883 5883 5882 5883 5882 5882
5818 5820 5822 5826 5830 5834 5838 5843 5846 5850 5854 5857 5860 5863 5865 5868 5870 5872 5874 5876 5877 5878 5879 5881 5881 5882 5882 5883 5883 5883 5883 5884 5883 5883 5882 5882 5882 5882 5882 5882 5881 5881 5881
5817 5818 5820 5822 5826 5830 5834 5839 5843 5846 5850 5854 5857 5860 5863 5866 5868 5870 5872 5874 5876 5877 5878 5880 5881 5881 5882 5882 5883 5883 5883 5883 5882 5882 5882 5881 5881 5881 5881 5881 5880 5880 5880
5815 5816 5817 5819 5823 5826 5831 5835 5839 5843 5847 5851 5854 5858 5860 5863 5866 5868 5870 5873 5874 5876 5877 5878 5879 5880 5881 5881 5882 5882 5882 5882 5882 5882 5881 5881 5880 5880 5880 5879 5879 5879 5878
5814 5814 5815 5816 5819 5824 5828 5832 5837 5841 5844 5847 5851 5855 5858 5861 5863 5866 5868 5871 5873 5874 5876 5877 5878 5879 5879 5880 5880 5881 5881 5881 5881 5881 5881 5880 5880 5879 5879 5878 5877 5877 5876
5813 5813 5813 5815 5817 5821 5825 5830 5834 5838 5841 5844 5848 5852 5855 5858 5861 5864 5866 5868 5870 5872 5874 5875 5876 5877 5878 5878 5879 5879 5879 5880 5880 5880 5879 5879 5879 5878 5877 5877 5876 5875 5874